Cloud_Cover
1 0 0 0 0 5 5 5 5 24 1 5 3 5 5 5 5 18 80 6 24 87 98 96 69 13 5 6 5 68 83 62 85 100 100 100 100 46 64 8 5 5 5
0 0 0 0 0 1 1 4 0 0 0 0 2 5 68 94 61 18 100 99 58 84 85 5 68 31 69 69 57 84 100 100 100 100 100 100 6 4 5 54 5 17 5
0 0 0 0 0 0 0 0 5 0 3 0 5 80 80 95 100 72 41 100 100 97 30 5 96 44 100 100 100 100 100 100 51 71 58 98 85 91 5 5 5 5 26
0 0 0 0 0 0 0 0 4 5 1 15 96 100 94 39 100 8 16 100 100 28 56 24 98 100 100 93 87 100 100 18 5 0 3 5 5 79 5 41 19 26 9
3 0 0 0 0 0 1 16 5 4 3 61 11 18 100 100 100 82 59 100 100 55 5 5 4 5 5 19 88 88 60 56 25 75 70 14 5 28 96 11 5 4 13
18 0 5 4 0 0 0 4 1 5 75 5 5 100 100 98 100 100 42 8 8 5 3 2 8 5 20 98 100 77 97 99 100 83 58 69 18 82 97 20 97 6 100
2 0 0 1 5 0 0 0 11 5 100 88 80 60 71 87 38 5 5 5 5 11 100 14 91 8 28 68 68 86 100 100 100 80 95 85 65 44 94 100 28 6 8
0 0 0 0 1 0 0 7 5 5 100 100 100 100 100 82 32 5 5 5 54 100 89 57 6 93 97 98 96 100 100 100 97 97 100 77 98 82 5 93 76 5 7
0 0 2 4 0 2 0 1 1 5 100 100 100 57 15 90 100 99 14 12 13 98 5 24 12 86 95 66 5 5 13 100 76 100 100 19 100 98 6 89 5 16 5
1 0 1 1 5 5 1 3 5 7 5 100 100 96 71 5 88 100 60 97 10 5 5 6 5 100 100 96 100 52 6 92 81 100 89 45 100 99 42 5 90 5 7
1 0 6 7 6 35 0 1 7 82 56 48 93 100 81 47 57 35 82 32 82 17 40 90 58 66 100 66 50 100 28 93 100 100 100 90 34 100 15 100 11 15 5
6 4 3 0 4 5 33 0 2 5 100 100 98 100 100 100 100 83 61 99 78 34 5 15 100 100 100 94 78 33 100 100 100 100 100 90 100 99 66 82 5 5 5
83 26 11 4 0 5 92 5 3 4 72 100 100 99 94 100 100 100 10 6 40 50 26 5 100 100 100 89 41 99 100 100 100 100 100 100 100 100 87 10 28 6 5
87 29 1 5 4 4 6 91 0 0 52 90 80 79 74 98 32 55 18 44 53 27 48 69 94 90 98 92 100 100 81 94 100 100 100 100 100 90 100 47 9 100 39
14 66 91 0 48 78 55 28 25 47 14 99 84 20 100 100 97 100 9 17 68 9 96 100 100 93 59 78 64 38 97 99 100 100 100 100 100 100 82 100 98 5 50
11 0 88 0 4 22 15 12 100 39 60 100 83 1 23 100 100 100 95 100 48 100 100 100 100 74 96 93 99 98 95 100 100 100 100 100 100 100 100 100 100 46 6
0 0 6 0 0 0 5 6 62 46 35 62 79 7 5 90 100 12 78 95 54 72 100 100 78 98 100 100 99 74 99 100 100 100 100 100 100 100 100 100 79 6 5
3 4 4 1 0 0 0 0 1 11 100 7 80 81 3 97 100 100 30 5 52 100 100 91 93 100 88 100 100 100 100 94 100 100 100 100 100 100 100 100 100 5 5
0 0 5 5 34 0 0 0 0 0 45 97 21 55 25 94 100 100 92 10 5 100 100 100 100 82 91 100 100 100 100 100 100 98 97 100 100 100 100 100 100 14 5
0 0 5 4 33 59 8 0 0 0 0 32 6 3 0 22 100 100 100 67 71 100 100 100 73 87 98 100 97 79 100 92 95 89 100 100 100 100 100 100 100 54 92
0 0 5 5 5 5 27 5 0 0 0 0 4 0 0 0 5 78 59 93 4 28 100 97 100 83 82 94 94 99 99 99 59 87 100 100 93 91 100 100 100 99 83
0 0 4 8 63 17 6 5 0 0 0 5 0 1 1 0 0 0 9 5 5 11 100 100 100 26 100 18 73 68 80 100 100 100 100 78 100 100 100 100 100 100 100
0 0 0 4 28 96 0 0 0 36 6 5 1 0 2 3 0 0 5 13 5 56 81 100 100 100 83 71 8 8 49 100 100 100 100 100 100 100 100 100 100 100 100
0 0 0 0 4 41 71 35 3 0 90 10 5 5 5 5 5 5 4 10 5 5 56 52 100 100 100 28 20 68 13 86 100 100 72 100 100 100 100 100 100 100 100
10 0 0 0 0 5 100 82 57 0 1 98 8 3 0 2 0 0 2 0 17 5 24 8 5 95 100 100 100 86 100 100 86 100 18 100 100 100 100 100 100 100 100
9 1 0 0 0 0 92 51 54 100 28 0 1 31 3 0 0 0 0 0 0 4 2 5 83 98 100 88 100 100 99 99 100 100 100 100 100 100 100 100 98 100 100